User: anonymous   Login
Location: Unspecified
(0.0000°N, 0.0000°E)
Time: 06:33:07
(UTC+00:00)
Language:

STARLINK-73 - Orbit

View from above orbital plane
View from above orbital plane
View from above satellite
View from above satellite

Ground track
Ground track

The orbit data is extracted from the following two-line orbital elements,

1 44284C 19029BB  20148.07684502  .00868692  00000-0  41831-1 0  1483
2 44284  53.0015 307.3359 0001294  99.1622 165.5639 15.17371596    14
Epoch (UTC): 27 May 2020 01:50:39
Eccentricity: 0.0001294
inclination: 53.0015°
perigee height: 513 km
apogee height: 514 km
right ascension of ascending node: 307.3359°
argument of perigee: 99.1622°
revolutions per day: 15.17371596
mean anomaly at epoch: 165.5639°
orbit number at epoch: 1

The dashed part of the orbit path shows where the satellite is in the earth's shadow,  

DLR